FALCON 9 DEB (55627 NORAD) Tracking and Keplerian Element Data

This shows tracking and keplerian element data for the satellite.

Feedback or suggestion? Click here.




ElementValue
Catalog55627
NameFALCON 9 DEB
Epoch Orbit314
Epoch Day62.89368591
Epoch Year2023
RAAN234.4947
Inclination42.9966
Eccentricity0.00142
Argument of Perigee61.9004
Mean Anonmoly298.3308
Mean Motion16.00226166
Decay Rate0.0059745
L11 55627U 23020BL 23062.89368591 .00597450 16534-3 10987-2 0 9993
L22 55627 42.9966 234.4947 0014200 61.9004 298.3308 16.00226166 3144



Live tracking and technical data element details for FALCON 9 DEB (NORAD 55627). FALCON 9 DEB can be tracked NOW for your location showing map with azimuth and elevation plus other details from your city location.







IsCatalogInMostPopularTable: catalog: 55627, numindb: 4
Update: records affected: 1



GetName: 55627 FALCON 9 DEB

Hit Count: updated at: Tue, 28 Mar 2023 01:46:37 GMT